Location: Asheville, NC
(35.6000°N, 82.5500°W)
Time: 17:24:53

RS-15 - Pass Details

Date: 09 March 2018
Orbit: 1887 x 2157 km, 64.8° (Epoch: 18 March)

Event Time Altitude Azimuth Distance (km) Brightness Sun altitude
Rises 06:09:25 0° 320° (NW) 5,611 10.1 -8.9°
Reaches altitude 10° 06:15:25 10° 342° (NNW) 4,557 9.8 -7.7°
Maximum altitude 06:21:44 15° 15° (NNE) 4,059 9.9 -6.4°
Drops below altitude 10° 06:27:54 10° 49° (NE) 4,433 10.7 -5.2°
Sets 06:33:32 0° 71° (ENE) 5,377 11.9 -4.0°
